AMQ4276 DTMB-EPWR

Flight info

Callsign AMQ4276
Flight time N/A
Altitude 35000
Route LARBI1A LARBI A411 VAXAL UM734 SIRVI UG727 NIBEL M734 BETOT/N0372F180 L44 OST/N0443F360 DCT GOTMO DCT NIKOL/N0442F370 DCT ALIVO DCT NIGSI DCT ABLOM DCT VALPI/N0440F360 DCT REGLI L617 EPOPA
Aircraft A320/M-SDE3FGHIRWY/LB1

Departure

Time N/A
Airport Monastir Habib Bourguiba International Airport (DTMB)

Arrival

Time 2026-05-06 22:22
Airport Copernicus Wrocław Airport (EPWR)
Time Latitude Longitude Altitude Speed Heading
2026-05-06 20:06 38.66595 11.18762 34928 ft 398 kts
2026-05-06 20:06 38.69304 11.19443 34931 ft 398 kts
2026-05-06 20:06 38.74732 11.20809 34938 ft 398 kts
2026-05-06 20:07 38.80129 11.22170 34942 ft 398 kts
2026-05-06 20:07 38.85575 11.23545 34943 ft 398 kts
2026-05-06 20:08 38.90982 11.24913 34942 ft 399 kts
2026-05-06 20:08 38.96417 11.26293 34941 ft 400 kts
2026-05-06 20:09 39.01851 11.27673 34940 ft 401 kts
2026-05-06 20:09 39.07307 11.29058 34938 ft 402 kts
2026-05-06 20:10 39.12773 11.30445 34939 ft 402 kts
2026-05-06 20:10 39.18251 11.31837 34938 ft 402 kts
2026-05-06 20:11 39.23730 11.33232 34938 ft 402 kts
2026-05-06 20:11 39.29185 11.34627 34938 ft 402 kts
2026-05-06 20:12 39.34651 11.36026 34937 ft 402 kts
2026-05-06 20:12 39.40128 11.37431 34938 ft 402 kts
2026-05-06 20:13 39.45580 11.38832 34943 ft 402 kts
2026-05-06 20:13 39.51046 11.40239 34950 ft 402 kts
2026-05-06 20:14 39.56509 11.41646 34957 ft 402 kts
2026-05-06 20:14 39.61985 11.43060 34959 ft 402 kts
2026-05-06 20:15 39.67445 11.44473 34958 ft 402 kts
2026-05-06 20:15 39.72913 11.45889 34958 ft 402 kts
2026-05-06 20:16 39.78399 11.47313 34966 ft 402 kts
2026-05-06 20:16 39.83861 11.48733 34981 ft 402 kts
2026-05-06 20:17 39.89298 11.50147 34998 ft 402 kts
2026-05-06 20:17 39.94778 11.51577 35009 ft 402 kts
2026-05-06 20:18 40.00156 11.52983 35014 ft 402 kts
2026-05-06 20:18 40.05639 11.54416 35017 ft 402 kts
2026-05-06 20:19 40.11114 11.55851 35020 ft 402 kts
2026-05-06 20:19 40.16563 11.57277 35019 ft 402 kts
2026-05-06 20:20 40.22012 11.58708 35017 ft 402 kts
2026-05-06 20:20 40.27488 11.60152 35017 ft 402 kts
2026-05-06 20:21 40.32967 11.61599 35018 ft 402 kts
2026-05-06 20:21 40.38392 11.63142 35420 ft 400 kts 10°
2026-05-06 20:22 40.41059 11.64140 35806 ft 397 kts 12°
2026-05-06 20:22 40.43687 11.65255 36001 ft 397 kts 13°
2026-05-06 20:22 40.48904 11.67555 36012 ft 397 kts 14°
2026-05-06 20:23 40.54116 11.69846 36017 ft 397 kts 14°
2026-05-06 20:23 40.59352 11.72133 36017 ft 397 kts 13°
2026-05-06 20:24 40.64581 11.74411 36017 ft 397 kts 13°
2026-05-06 20:24 40.69841 11.76703 36018 ft 397 kts 13°
2026-05-06 20:25 40.75073 11.78984 36018 ft 397 kts 13°
2026-05-06 20:25 40.80298 11.81268 36018 ft 398 kts 13°
2026-05-06 20:26 40.85520 11.83550 36017 ft 397 kts 13°
2026-05-06 20:26 40.90757 11.85845 36017 ft 398 kts 13°
2026-05-06 20:27 40.95997 11.88144 36017 ft 397 kts 13°
2026-05-06 20:27 41.01129 11.90402 36018 ft 398 kts 13°
2026-05-06 20:28 41.06376 11.92714 36016 ft 399 kts 13°
2026-05-06 20:28 41.11606 11.95019 36019 ft 400 kts 13°
2026-05-06 20:29 41.16905 11.97349 36017 ft 401 kts 13°
2026-05-06 20:29 41.22172 11.99675 36017 ft 401 kts 13°
2026-05-06 20:30 41.30088 12.03182 36017 ft 401 kts 13°
2026-05-06 20:31 41.35359 12.05523 36017 ft 401 kts 13°
2026-05-06 20:31 41.40631 12.07870 36017 ft 401 kts 13°
2026-05-06 20:32 41.45860 12.10347 36013 ft 406 kts 19°
2026-05-06 20:32 41.50809 12.13865 36017 ft 405 kts 23°
2026-05-06 20:33 41.55661 12.17557 36016 ft 402 kts 23°
2026-05-06 20:33 41.60519 12.21269 36017 ft 402 kts 23°
2026-05-06 20:34 41.65354 12.24967 36017 ft 402 kts 23°
2026-05-06 20:34 41.70206 12.28683 36017 ft 402 kts 23°
2026-05-06 20:35 41.75044 12.32401 36017 ft 401 kts 23°
2026-05-06 20:35 41.79885 12.36125 36017 ft 401 kts 23°
2026-05-06 20:36 41.84696 12.39823 36017 ft 401 kts 23°
2026-05-06 20:36 41.89519 12.43534 36016 ft 401 kts 23°
2026-05-06 20:37 41.94320 12.47234 36017 ft 401 kts 23°
2026-05-06 20:37 41.99171 12.50975 36016 ft 402 kts 23°
2026-05-06 20:38 42.03904 12.54628 36016 ft 401 kts 23°
2026-05-06 20:38 42.08721 12.58352 36017 ft 400 kts 23°
2026-05-06 20:39 42.13549 12.62081 36019 ft 400 kts 22°
2026-05-06 20:39 42.18373 12.65794 36015 ft 401 kts 23°
2026-05-06 20:40 42.23214 12.69562 36017 ft 400 kts 24°
2026-05-06 20:40 42.27999 12.73303 36017 ft 400 kts 24°
2026-05-06 20:41 42.32810 12.77069 36018 ft 400 kts 24°
2026-05-06 20:41 42.37599 12.80823 36017 ft 399 kts 24°
2026-05-06 20:42 42.42317 12.84526 36018 ft 399 kts 24°
2026-05-06 20:42 42.47376 12.87473 36018 ft 398 kts 13°
2026-05-06 20:43 42.52663 12.89836 36011 ft 402 kts 13°
2026-05-06 20:43 42.57959 12.92208 36003 ft 402 kts 13°
2026-05-06 20:44 42.63260 12.94597 35998 ft 402 kts 13°
2026-05-06 20:44 42.68558 12.96995 35995 ft 402 kts 13°
2026-05-06 20:45 42.73852 12.99398 35994 ft 400 kts 13°
2026-05-06 20:45 42.79112 13.01792 35993 ft 399 kts 13°
2026-05-06 20:46 42.84336 13.04171 35993 ft 396 kts 13°
2026-05-06 20:46 42.89521 13.06538 35994 ft 394 kts 12°
2026-05-06 20:47 42.94729 13.08924 35991 ft 392 kts 12°
2026-05-06 20:47 42.99872 13.11281 35988 ft 390 kts 12°
2026-05-06 20:48 43.04915 13.13595 35983 ft 388 kts 11°
2026-05-06 20:48 43.10004 13.15932 35978 ft 387 kts 11°
2026-05-06 20:49 43.15081 13.18260 35974 ft 384 kts 11°
2026-05-06 20:49 43.20124 13.20581 35968 ft 382 kts 11°
2026-05-06 20:50 43.24318 13.22515 35965 ft 382 kts 11°
2026-05-06 20:50 43.29337 13.24834 35965 ft 383 kts 11°
2026-05-06 20:51 43.35226 13.27563 35965 ft 382 kts 11°
2026-05-06 20:51 43.40235 13.29890 35964 ft 382 kts 11°
2026-05-06 20:52 43.45252 13.32225 35964 ft 382 kts 11°
2026-05-06 20:52 43.50271 13.34564 35963 ft 382 kts 11°
2026-05-06 20:53 43.55305 13.36914 35966 ft 383 kts 11°
2026-05-06 20:53 43.60351 13.39275 35965 ft 383 kts 11°
2026-05-06 20:54 43.65364 13.41624 35964 ft 382 kts 11°
2026-05-06 20:54 43.70370 13.43973 35963 ft 382 kts 11°
2026-05-06 20:55 43.75417 13.46349 35964 ft 383 kts 11°
2026-05-06 20:55 43.80424 13.48708 35963 ft 383 kts 11°
2026-05-06 20:56 43.85461 13.51085 35965 ft 383 kts 11°
2026-05-06 20:56 43.90473 13.53455 35962 ft 382 kts 11°
2026-05-06 20:57 43.95512 13.55843 35962 ft 383 kts 11°
2026-05-06 20:57 44.00462 13.58192 35965 ft 382 kts 11°
2026-05-06 20:58 44.05494 13.60585 35963 ft 383 kts 11°
2026-05-06 20:58 44.10519 13.62979 35965 ft 383 kts 11°
2026-05-06 20:59 44.15540 13.65371 35963 ft 383 kts 12°
2026-05-06 20:59 44.20461 13.67890 35963 ft 387 kts 15°
2026-05-06 21:00 44.25326 13.71093 36424 ft 388 kts 20°
2026-05-06 21:00 44.27679 13.72908 36809 ft 384 kts 21°
2026-05-06 21:00 44.29989 13.74726 36954 ft 385 kts 21°
2026-05-06 21:01 44.34649 13.78404 36961 ft 385 kts 21°
2026-05-06 21:01 44.39290 13.82080 36963 ft 385 kts 21°
2026-05-06 21:02 44.43939 13.85772 36965 ft 385 kts 21°
2026-05-06 21:02 44.48575 13.89459 36964 ft 385 kts 21°
2026-05-06 21:03 44.53239 13.93177 36965 ft 385 kts 21°
2026-05-06 21:03 44.57883 13.96883 36965 ft 385 kts 21°
2026-05-06 21:04 44.62509 14.00584 36965 ft 386 kts 21°
2026-05-06 21:04 44.67160 14.04310 36966 ft 385 kts 21°
2026-05-06 21:05 44.71792 14.08029 36965 ft 385 kts 21°
2026-05-06 21:05 44.76438 14.11767 36960 ft 386 kts 21°
2026-05-06 21:06 44.81099 14.15523 36951 ft 386 kts 21°
2026-05-06 21:06 44.85753 14.19280 36945 ft 386 kts 21°
2026-05-06 21:07 44.90384 14.23026 36940 ft 386 kts 21°
2026-05-06 21:07 44.95010 14.26775 36939 ft 386 kts 21°
2026-05-06 21:08 44.99644 14.30539 36939 ft 386 kts 21°
2026-05-06 21:08 45.04306 14.34336 36939 ft 385 kts 20°
2026-05-06 21:09 45.08900 14.38080 36938 ft 385 kts 20°
2026-05-06 21:09 45.13532 14.41853 36940 ft 385 kts 20°
2026-05-06 21:10 45.18167 14.45629 36939 ft 385 kts 20°
2026-05-06 21:10 45.22779 14.49404 36939 ft 384 kts 20°
2026-05-06 21:11 45.27394 14.53193 36939 ft 384 kts 20°
2026-05-06 21:11 45.32036 14.57011 36939 ft 384 kts 20°
2026-05-06 21:12 45.36631 14.60800 36939 ft 384 kts 20°
2026-05-06 21:12 45.41238 14.64607 36939 ft 385 kts 20°
2026-05-06 21:13 45.45878 14.68471 36938 ft 385 kts 21°
2026-05-06 21:13 45.50484 14.72302 36938 ft 385 kts 20°
2026-05-06 21:14 45.55185 14.75777 36939 ft 380 kts 17°
2026-05-06 21:14 45.59924 14.79001 36939 ft 380 kts 16°
2026-05-06 21:15 45.64714 14.82254 36938 ft 380 kts 16°
2026-05-06 21:15 45.69484 14.85500 36939 ft 380 kts 16°
2026-05-06 21:16 45.74238 14.88742 36939 ft 380 kts 16°
2026-05-06 21:16 45.78984 14.91985 36939 ft 379 kts 16°
2026-05-06 21:17 45.83734 14.95237 36940 ft 377 kts 16°
2026-05-06 21:17 45.88465 14.98480 36940 ft 378 kts 16°
2026-05-06 21:18 45.93125 15.01680 36940 ft 379 kts 16°
2026-05-06 21:18 45.97870 15.04946 36940 ft 379 kts 17°
2026-05-06 21:19 46.02615 15.08218 36940 ft 380 kts 17°
2026-05-06 21:19 46.07368 15.11502 36940 ft 380 kts 17°
2026-05-06 21:20 46.12128 15.14795 36939 ft 381 kts 17°
2026-05-06 21:20 46.16872 15.18075 36930 ft 381 kts 17°
2026-05-06 21:21 46.21646 15.21388 36932 ft 381 kts 17°
2026-05-06 21:21 46.26398 15.24694 36934 ft 381 kts 17°
2026-05-06 21:22 46.31136 15.27998 36934 ft 380 kts 17°
2026-05-06 21:22 46.35906 15.31333 36929 ft 380 kts 17°
2026-05-06 21:23 46.40669 15.34669 36923 ft 380 kts 17°
2026-05-06 21:23 46.45408 15.37994 36917 ft 380 kts 17°
2026-05-06 21:24 46.50151 15.41329 36913 ft 380 kts 17°
2026-05-06 21:24 46.54888 15.44666 36911 ft 380 kts 17°
2026-05-06 21:25 46.59619 15.48006 36910 ft 380 kts 17°
2026-05-06 21:25 46.64379 15.51373 36909 ft 380 kts 17°
2026-05-06 21:26 46.69095 15.54715 36907 ft 380 kts 17°
2026-05-06 21:26 46.73845 15.58088 36906 ft 380 kts 17°
2026-05-06 21:27 46.78569 15.61450 36905 ft 380 kts 17°
2026-05-06 21:27 46.83315 15.64833 36901 ft 380 kts 17°
2026-05-06 21:28 46.88032 15.68226 36895 ft 379 kts 17°
2026-05-06 21:28 46.92755 15.71631 36889 ft 378 kts 17°
2026-05-06 21:29 46.97467 15.75023 36885 ft 377 kts 16°
2026-05-06 21:29 47.02089 15.78348 36882 ft 375 kts 15°
2026-05-06 21:30 47.06719 15.81678 36883 ft 374 kts 15°
2026-05-06 21:30 47.11393 15.85038 36888 ft 374 kts 15°
2026-05-06 21:31 47.16046 15.88385 36884 ft 374 kts 15°
2026-05-06 21:31 47.20702 15.91750 36884 ft 374 kts 15°
2026-05-06 21:32 47.25341 15.95114 36884 ft 374 kts 15°
2026-05-06 21:32 47.32183 16.00328 36884 ft 379 kts 19°
2026-05-06 21:33 47.36657 16.04646 36884 ft 387 kts 24°
2026-05-06 21:33 47.40871 16.09642 36880 ft 396 kts 28°
2026-05-06 21:34 47.44858 16.15308 36864 ft 398 kts 31°
2026-05-06 21:34 47.48729 16.21053 36845 ft 394 kts 31°
2026-05-06 21:35 47.52594 16.26798 36826 ft 394 kts 31°
2026-05-06 21:35 47.56450 16.32540 36811 ft 393 kts 31°
2026-05-06 21:36 47.60286 16.38268 36805 ft 392 kts 31°
2026-05-06 21:36 47.64112 16.43992 36802 ft 392 kts 31°
2026-05-06 21:37 47.67929 16.49714 36801 ft 392 kts 31°
2026-05-06 21:37 47.71756 16.55467 36800 ft 392 kts 31°
2026-05-06 21:38 47.75589 16.61239 36800 ft 392 kts 31°
2026-05-06 21:38 47.79390 16.66985 36797 ft 393 kts 32°
2026-05-06 21:39 47.83220 16.72809 36800 ft 393 kts 32°
2026-05-06 21:39 47.87027 16.78595 36800 ft 393 kts 32°
2026-05-06 21:40 47.90849 16.84397 36800 ft 394 kts 32°
2026-05-06 21:40 47.94699 16.90245 36803 ft 397 kts 34°
2026-05-06 21:41 47.98576 16.96159 36807 ft 401 kts 35°
2026-05-06 21:41 48.02472 17.02103 36814 ft 402 kts 35°
2026-05-06 21:42 48.06603 17.07637 36822 ft 400 kts 30°
2026-05-06 21:42 48.11120 17.12511 36828 ft 401 kts 24°
2026-05-06 21:43 48.15879 17.16793 36828 ft 399 kts 22°
2026-05-06 21:43 48.20647 17.21005 36826 ft 399 kts 22°
2026-05-06 21:44 48.25415 17.25228 36828 ft 399 kts 22°
2026-05-06 21:44 48.30178 17.29464 36827 ft 399 kts 22°
2026-05-06 21:45 48.34957 17.33723 36827 ft 399 kts 22°
2026-05-06 21:45 48.39705 17.37964 36829 ft 400 kts 22°
2026-05-06 21:46 48.44492 17.42251 36827 ft 399 kts 22°
2026-05-06 21:46 48.49264 17.46534 36828 ft 400 kts 22°
2026-05-06 21:47 48.54027 17.50817 36827 ft 400 kts 22°
2026-05-06 21:47 48.58791 17.55111 36828 ft 400 kts 22°
2026-05-06 21:48 48.63535 17.59397 36827 ft 400 kts 22°
2026-05-06 21:48 48.68282 17.63696 36826 ft 399 kts 22°
2026-05-06 21:49 48.73042 17.68033 36826 ft 401 kts 23°
2026-05-06 21:49 48.77795 17.72377 36826 ft 401 kts 23°
2026-05-06 21:50 48.82571 17.76737 36827 ft 401 kts 23°
2026-05-06 21:50 48.87338 17.81088 36827 ft 401 kts 23°
2026-05-06 21:51 48.92084 17.85432 36834 ft 401 kts 23°
2026-05-06 21:51 48.96889 17.89625 36842 ft 397 kts 18°
2026-05-06 21:52 49.01912 17.92743 36847 ft 394 kts 11°
2026-05-06 21:52 49.07232 17.94701 36571 ft 395 kts
2026-05-06 21:53 49.09938 17.95214 36322 ft 397 kts 359°
2026-05-06 21:53 49.12677 17.95444 36075 ft 400 kts 357°
2026-05-06 21:53 49.15440 17.95579 35881 ft 400 kts 357°
2026-05-06 21:53 49.18206 17.95699 35858 ft 401 kts 357°
2026-05-06 21:54 49.23793 17.95941 35844 ft 402 kts 357°
2026-05-06 21:54 49.29339 17.96187 35830 ft 401 kts 357°
2026-05-06 21:55 49.34895 17.96430 35816 ft 401 kts 357°
2026-05-06 21:55 49.40448 17.96675 35808 ft 402 kts 357°
2026-05-06 21:56 49.45998 17.96924 35803 ft 402 kts 357°
2026-05-06 21:56 49.51556 17.97171 35801 ft 402 kts 357°
2026-05-06 21:57 49.57098 17.97421 35679 ft 395 kts 357°
2026-05-06 21:57 49.59811 17.97547 34872 ft 391 kts 356°
2026-05-06 21:57 49.62518 17.97666 33306 ft 401 kts 356°
2026-05-06 21:58 49.65272 17.97784 31585 ft 411 kts 356°
2026-05-06 21:58 49.68145 17.97910 30715 ft 411 kts 356°
2026-05-06 21:58 49.70972 17.98040 30211 ft 412 kts 356°
2026-05-06 21:58 49.73842 17.98169 29517 ft 413 kts 356°
2026-05-06 21:59 49.76698 17.98298 28728 ft 416 kts 356°
2026-05-06 21:59 49.79597 17.98427 28176 ft 415 kts 356°
2026-05-06 21:59 49.82474 17.98557 27929 ft 418 kts 356°
2026-05-06 21:59 49.85354 17.98686 27680 ft 418 kts 356°
2026-05-06 22:00 49.88251 17.98818 27430 ft 417 kts 356°
2026-05-06 22:00 49.91138 17.98950 27179 ft 416 kts 356°
2026-05-06 22:00 49.94041 17.99081 26926 ft 415 kts 356°
2026-05-06 22:00 49.96901 17.99063 26675 ft 412 kts 353°
2026-05-06 22:01 49.99719 17.98786 26427 ft 409 kts 350°
2026-05-06 22:01 50.02507 17.98204 26168 ft 404 kts 343°
2026-05-06 22:01 50.05081 17.96564 25902 ft 395 kts 325°
2026-05-06 22:01 50.07234 17.94008 25661 ft 392 kts 318°
2026-05-06 22:02 50.09322 17.91237 25407 ft 391 kts 317°
2026-05-06 22:02 50.11379 17.88493 25158 ft 390 kts 318°
2026-05-06 22:02 50.13434 17.85776 24908 ft 389 kts 318°
2026-05-06 22:02 50.15507 17.83042 24656 ft 388 kts 318°
2026-05-06 22:03 50.17565 17.80329 24405 ft 388 kts 318°
2026-05-06 22:03 50.19618 17.77623 24155 ft 386 kts 318°
2026-05-06 22:03 50.21646 17.74948 23907 ft 385 kts 318°
2026-05-06 22:03 50.23691 17.72247 23656 ft 384 kts 318°
2026-05-06 22:04 50.25722 17.69563 23406 ft 384 kts 318°
2026-05-06 22:04 50.27769 17.66855 23146 ft 383 kts 317°
2026-05-06 22:04 50.29773 17.64201 22870 ft 382 kts 317°
2026-05-06 22:04 50.31789 17.61528 22510 ft 380 kts 317°
2026-05-06 22:05 50.33789 17.58874 22037 ft 378 kts 317°
2026-05-06 22:05 50.35800 17.56202 21502 ft 375 kts 317°
2026-05-06 22:05 50.37764 17.53590 20955 ft 374 kts 317°
2026-05-06 22:05 50.39724 17.50978 20396 ft 372 kts 317°
2026-05-06 22:06 50.41700 17.48343 19822 ft 371 kts 317°
2026-05-06 22:06 50.43665 17.45720 19245 ft 370 kts 317°
2026-05-06 22:06 50.45593 17.43144 18684 ft 368 kts 317°
2026-05-06 22:06 50.47556 17.40517 18114 ft 367 kts 317°
2026-05-06 22:07 50.49472 17.37952 17561 ft 365 kts 317°
2026-05-06 22:07 50.51387 17.35384 17008 ft 364 kts 317°
2026-05-06 22:07 50.53257 17.32869 16474 ft 362 kts 316°
2026-05-06 22:07 50.55166 17.30289 15932 ft 360 kts 316°
2026-05-06 22:08 50.57058 17.27734 15397 ft 358 kts 317°
2026-05-06 22:08 50.58920 17.25220 14854 ft 357 kts 317°
2026-05-06 22:08 50.60793 17.22691 14320 ft 355 kts 317°
2026-05-06 22:08 50.62656 17.20173 13795 ft 354 kts 317°
2026-05-06 22:09 50.64511 17.17666 13278 ft 352 kts 317°
2026-05-06 22:09 50.66369 17.15151 12764 ft 349 kts 317°
2026-05-06 22:09 50.68205 17.12666 12262 ft 347 kts 317°
2026-05-06 22:09 50.70003 17.10228 11773 ft 345 kts 317°
2026-05-06 22:10 50.71828 17.07754 11278 ft 343 kts 317°
2026-05-06 22:10 50.73635 17.05303 10788 ft 341 kts 317°
2026-05-06 22:10 50.75414 17.02885 10360 ft 337 kts 317°
2026-05-06 22:10 50.77145 17.00535 10242 ft 322 kts 317°
2026-05-06 22:11 50.78795 16.98293 10139 ft 308 kts 316°
2026-05-06 22:11 50.80403 16.96104 10051 ft 294 kts 316°
2026-05-06 22:11 50.81901 16.94063 9845 ft 287 kts 316°
2026-05-06 22:11 50.83398 16.92018 9483 ft 285 kts 316°
2026-05-06 22:12 50.84893 16.89973 9136 ft 283 kts 316°
2026-05-06 22:12 50.86383 16.87935 8796 ft 282 kts 316°
2026-05-06 22:12 50.87864 16.85907 8472 ft 279 kts 316°
2026-05-06 22:12 50.89320 16.83912 8157 ft 277 kts 316°
2026-05-06 22:13 50.90770 16.81924 7841 ft 275 kts 316°
2026-05-06 22:13 50.92211 16.79947 7527 ft 274 kts 316°
2026-05-06 22:13 50.93631 16.77998 7219 ft 272 kts 316°
2026-05-06 22:13 50.95057 16.76037 6934 ft 269 kts 316°
2026-05-06 22:14 50.96455 16.74115 6705 ft 263 kts 317°
2026-05-06 22:14 50.97815 16.72243 6463 ft 258 kts 317°
2026-05-06 22:14 50.99151 16.70401 6161 ft 256 kts 317°
2026-05-06 22:14 51.00458 16.68595 5832 ft 256 kts 317°
2026-05-06 22:15 51.01797 16.66745 5505 ft 255 kts 318°
2026-05-06 22:15 51.03128 16.64902 5231 ft 254 kts 319°
2026-05-06 22:15 51.04466 16.63050 4992 ft 251 kts 320°
2026-05-06 22:15 51.05751 16.61270 4762 ft 245 kts 320°
2026-05-06 22:16 51.07034 16.59500 4404 ft 234 kts 320°
2026-05-06 22:16 51.08206 16.57882 4350 ft 217 kts 320°
2026-05-06 22:16 51.09357 16.56340 4341 ft 216 kts 327°
2026-05-06 22:16 51.10747 16.55538 4294 ft 216 kts 358°
2026-05-06 22:17 51.12200 16.56026 4114 ft 218 kts 23°
2026-05-06 22:17 51.13564 16.57074 3912 ft 217 kts 26°
2026-05-06 22:17 51.14900 16.58144 3718 ft 212 kts 25°
2026-05-06 22:17 51.16188 16.59164 3527 ft 206 kts 25°
2026-05-06 22:18 51.17360 16.60443 3302 ft 204 kts 51°
2026-05-06 22:18 51.17899 16.62490 3081 ft 203 kts 86°
2026-05-06 22:18 51.17637 16.64688 3045 ft 206 kts 112°
2026-05-06 22:18 51.17017 16.66750 3057 ft 206 kts 115°
2026-05-06 22:19 51.16357 16.68800 3156 ft 209 kts 115°
2026-05-06 22:19 51.15708 16.70852 2735 ft 213 kts 115°
2026-05-06 22:19 51.15058 16.72954 2289 ft 203 kts 114°
2026-05-06 22:19 51.14469 16.74873 2007 ft 182 kts 115°
2026-05-06 22:20 51.13946 16.76581 1808 ft 164 kts 115°
2026-05-06 22:20 51.13466 16.78148 1567 ft 149 kts 115°
2026-05-06 22:20 51.13032 16.79562 1352 ft 136 kts 115°
2026-05-06 22:20 51.12625 16.80891 1191 ft 134 kts 115°
2026-05-06 22:21 51.12217 16.82221 1023 ft 134 kts 115°
2026-05-06 22:21 51.11803 16.83572 807 ft 137 kts 116°
2026-05-06 22:21 51.11380 16.84954 656 ft 142 kts 116°
2026-05-06 22:21 51.10947 16.86375 459 ft 141 kts 116°
2026-05-06 22:22 51.10535 16.87719 404 ft 123 kts 117°
2026-05-06 22:22 51.10232 16.88700 397 ft 75 kts 115°
2026-05-06 22:22 51.10076 16.89208 397 ft 33 kts 112°
2026-05-06 22:22 51.09981 16.89521 399 ft 27 kts 116°
2026-05-06 22:23 51.09915 16.89731 399 ft 19 kts 117°
2026-05-06 22:23 51.09898 16.89784 399 ft 0 kts 117°
2026-05-06 22:23 51.09905 16.89801 399 ft 2 kts 348°
2026-05-06 22:23 51.09919 16.89751 399 ft 6 kts 289°
2026-05-06 22:24 51.09971 16.89553 399 ft 24 kts 296°
2026-05-06 22:24 51.10042 16.89317 398 ft 23 kts 296°
2026-05-06 22:24 51.10113 16.89082 396 ft 23 kts 296°
2026-05-06 22:24 51.10186 16.88847 396 ft 26 kts 296°
2026-05-06 22:25 51.10280 16.88538 398 ft 33 kts 298°
2026-05-06 22:25 51.10379 16.88218 400 ft 30 kts 297°
2026-05-06 22:25 51.10458 16.87925 402 ft 27 kts 297°
2026-05-06 22:25 51.10550 16.87674 404 ft 25 kts 296°
2026-05-06 22:26 51.10628 16.87415 405 ft 26 kts 296°
2026-05-06 22:26 51.10699 16.87195 405 ft 2 kts 339°
2026-05-06 22:26 51.10725 16.87246 404 ft 13 kts 44°
2026-05-06 22:26 51.10831 16.87324 402 ft 17 kts 27°
2026-05-06 22:27 51.10939 16.87418 402 ft 17 kts 47°
2026-05-06 22:27 51.10912 16.87599 401 ft 17 kts 118°
2026-05-06 22:27 51.10860 16.87768 400 ft 18 kts 116°
2026-05-06 22:27 51.10865 16.87860 399 ft 9 kts 20°
2026-05-06 22:28 51.10904 16.87887 399 ft 1 kts 26°